Location: Unspecified
(0.0000°N, 0.0000°E)
Time: 10:19:39
(UTC+00:00)

Transit 2A Rocket - All Passes

Search period start: 28 July 2014 00:00
Search period end: 07 August 2014 00:00
Orbit: 596 x 913 km, 66.7° (Epoch: 27 July)

Date Brightness Start Highest point End Pass type
(mag) Time Alt. Az. Time Alt. Az. Time Alt. Az.
28 Jul - 00:42:43 10° N 00:47:27 38° ENE 00:52:36 10° SE night (unlit)
28 Jul - 02:27:13 10° W 02:30:00 14° WSW 02:32:54 10° SW night (unlit)
28 Jul - 13:14:04 10° SSW 13:19:15 73° WNW 13:23:58 10° NNE daylight
29 Jul - 00:02:22 10° NNE 00:05:57 19° ENE 00:09:43 10° ESE night (unlit)
29 Jul - 01:43:48 10° NW 01:48:17 29° WSW 01:53:07 10° S night (unlit)
29 Jul - 12:32:36 10° S 12:37:40 51° ESE 12:42:16 10° NE daylight
30 Jul - 01:01:32 10° NNW 01:06:37 58° WSW 01:12:13 10° S night (unlit)
30 Jul - 11:51:51 10° SSE 11:56:00 24° ESE 11:59:51 10° ENE daylight
30 Jul - 13:34:55 10° WSW 13:38:19 18° WNW 13:41:32 10° NNW daylight
31 Jul - 00:19:55 10° NNW 00:25:02 69° ENE 00:30:40 10° SSE night (unlit)
31 Jul - 11:12:49 10° SE 11:14:16 11° ESE 11:15:42 10° E daylight
31 Jul - 12:52:04 10° SW 12:56:49 39° WNW 13:01:11 10° N daylight
31 Jul - 23:38:54 10° N 23:43:30 33° ENE 23:48:30 10° SE night (unlit)
01 Aug - 01:22:37 10° WNW 01:26:01 17° WSW 01:29:35 10° SSW night (unlit)
01 Aug - 12:10:06 10° SSW 12:15:17 87° WNW 12:19:59 10° NNE daylight
01 Aug - 22:58:50 10° NE 23:02:00 16° ENE 23:05:19 10° ESE night (unlit)
02 Aug - 00:39:35 10° NW 00:44:18 34° WSW 00:49:25 10° S night (unlit)
02 Aug - 11:28:47 10° S 11:33:41 42° ESE 11:38:08 10° NE daylight
02 Aug - 23:57:28 10° NNW 00:02:39 69° WSW 00:08:21 10° SSE night (unlit)
03 Aug - 10:48:15 10° SSE 10:52:00 20° ESE 10:55:30 10° ENE daylight
03 Aug - 12:30:35 10° WSW 12:34:21 21° WNW 12:37:54 10° NNW daylight
03 Aug - 23:15:59 10° N 23:21:05 58° ENE 23:26:40 10° SSE night (unlit)
04 Aug - 11:47:59 10° SW 11:52:51 46° WNW 11:57:18 10° N daylight
04 Aug - 22:35:07 10° NNE 22:39:33 28° ENE 22:44:20 10° SE night (unlit)
05 Aug - 00:18:09 10° WNW 00:22:01 20° WSW 00:26:06 10° SSW night (unlit)
05 Aug - 11:06:10 10° SSW 11:11:18 79° ESE 11:15:57 10° NNE daylight
05 Aug - 21:55:25 10° NE 21:58:03 14° ENE 22:00:45 10° ESE night (unlit)
05 Aug - 23:35:23 10° NW 23:40:19 40° WSW 23:45:40 10° S night (unlit)
06 Aug - 10:25:00 10° S 10:29:40 35° ESE 10:33:57 10° NE daylight
06 Aug - 12:10:24 10° W 12:11:53 11° WNW 12:13:20 10° NW daylight
06 Aug - 22:53:26 10° NNW 22:58:41 81° WSW 23:04:27 10° SSE night (unlit)
